When you browse on this site, cookies collect data to enhance your experience and personalize the content and advertising you see.
Visit our Privacy Policy to learn more. By continuing to use the site, you agree to this use of cookies and data.
  • In Germany
  • List of Countries
  • For 7 days
  • Water Temperature
  • Satellite Maps
  • Weather Map
  • Weather Widgets
  • user-avatar
    Login

    Hourly Weather Uige

    Today, 21 July, Sunday

    Time Temperature Precipitation Wind Pressure Humidity
    00:00 +17°C° 0 mm 0 mps 693 mmHg 86%
    01:00 +16°C° 0 mm 0 mps 693 mmHg 92%
    02:00 +15°C° 0 mm 0 mps 692 mmHg 94%
    03:00 +15°C° 0 mm 0 mps 692 mmHg 96%
    04:00 +14°C° 0 mm 0 mps 692 mmHg 98%
    05:00 +16°C° 0 mm 1 mps 692 mmHg 96%
    06:00 +16°C° 0 mm 1 mps 693 mmHg 95%
    07:00 +18°C° 0 mm 1 mps 693 mmHg 93%
    08:00 +21°C° 0 mm 1 mps 694 mmHg 80%
    09:00 +23°C° 0 mm 1 mps 694 mmHg 67%
    10:00 +26°C° 0 mm 2 mps 694 mmHg 54%
    11:00 +29°C° 0 mm 2 mps 694 mmHg 44%
    12:00 +32°C° 0 mm 1 mps 694 mmHg 33%
    13:00 +35°C° 0 mm 1 mps 694 mmHg 22%
    14:00 +35°C° 0 mm 2 mps 693 mmHg 22%
    15:00 +35°C° 0 mm 2 mps 692 mmHg 21%
    16:00 +34°C° 0 mm 2 mps 692 mmHg 21%
    17:00 +30°C° 0 mm 1 mps 691 mmHg 27%
    18:00 +27°C° 0 mm 1 mps 691 mmHg 33%
    19:00 +22°C° 0 mm 0 mps 691 mmHg 39%
    20:00 +23°C° 0 mm 1 mps 692 mmHg 44%
    21:00 +22°C° 0 mm 1 mps 692 mmHg 48%
    22:00 +20°C° 0 mm 1 mps 692 mmHg 53%
    23:00 +19°C° 0 mm 1 mps 692 mmHg 61%

    Tomorrow, 22 July, Monday

    Time Temperature Precipitation Wind Pressure Humidity
    00:00 +18°C° 0 mm 1 mps 692 mmHg 70%
    01:00 +16°C° 0 mm 1 mps 692 mmHg 78%
    02:00 +16°C° 0 mm 1 mps 691 mmHg 83%
    03:00 +15°C° 0 mm 1 mps 691 mmHg 89%
    04:00 +15°C° 0 mm 1 mps 691 mmHg 94%
    05:00 +15°C° 0 mm 1 mps 691 mmHg 93%
    06:00 +15°C° 0 mm 1 mps 692 mmHg 91%
    07:00 +16°C° 0 mm 1 mps 692 mmHg 90%
    08:00 +21°C° 0 mm 1 mps 693 mmHg 72%
    09:00 +25°C° 0 mm 1 mps 694 mmHg 55%
    10:00 +29°C° 0 mm 2 mps 694 mmHg 37%
    11:00 +31°C° 0 mm 2 mps 694 mmHg 32%
    12:00 +34°C° 0 mm 2 mps 693 mmHg 26%
    13:00 +36°C° 0 mm 2 mps 692 mmHg 20%
    14:00 +36°C° 0 mm 2 mps 692 mmHg 20%
    15:00 +35°C° 0 mm 3 mps 691 mmHg 20%
    16:00 +35°C° 0 mm 3 mps 691 mmHg 20%
    17:00 +31°C° 0 mm 2 mps 690 mmHg 28%
    18:00 +27°C° 0 mm 2 mps 690 mmHg 35%
    19:00 +24°C° 0 mm 1 mps 690 mmHg 42%
    20:00 +23°C° 0 mm 1 mps 691 mmHg 50%
    21:00 +21°C° 0 mm 1 mps 691 mmHg 57%
    22:00 +19°C° 0 mm 1 mps 691 mmHg 65%
    23:00 +18°C° 0 mm 1 mps 691 mmHg 73%

    Day after tomorrow, 23 July, Tuesday

    Time Temperature Precipitation Wind Pressure Humidity
    00:00 +16°C° 0 mm 1 mps 691 mmHg 81%
    01:00 +15°C° 0 mm 1 mps 690 mmHg 89%
    02:00 +15°C° 0 mm 1 mps 690 mmHg 92%
    03:00 +15°C° 0 mm 1 mps 690 mmHg 94%
    04:00 +14°C° 0 mm 1 mps 690 mmHg 97%
    05:00 +15°C° 0 mm 1 mps 691 mmHg 95%
    06:00 +16°C° 0 mm 1 mps 692 mmHg 92%
    07:00 +16°C° 0 mm 1 mps 692 mmHg 90%
    08:00 +21°C° 0 mm 1 mps 693 mmHg 72%
    09:00 +25°C° 0 mm 1 mps 693 mmHg 55%
    10:00 +29°C° 0 mm 1 mps 694 mmHg 37%
    11:00 +31°C° 0 mm 1 mps 693 mmHg 32%
    12:00 +33°C° 0 mm 1 mps 693 mmHg 27%
    13:00 +36°C° 0 mm 2 mps 692 mmHg 21%
    14:00 +35°C° 0 mm 2 mps 692 mmHg 21%
    15:00 +35°C° 0 mm 3 mps 691 mmHg 21%
    16:00 +35°C° 0 mm 3 mps 690 mmHg 21%
    17:00 +31°C° 0 mm 2 mps 690 mmHg 28%
    18:00 +27°C° 0 mm 2 mps 690 mmHg 35%
    19:00 +24°C° 0 mm 1 mps 690 mmHg 42%
    20:00 +23°C° 0 mm 1 mps 691 mmHg 48%
    21:00 +21°C° 0 mm 1 mps 691 mmHg 55%
    22:00 +20°C° 0 mm 1 mps 691 mmHg 61%
    23:00 +17°C° 0 mm 0 mps 691 mmHg 66%

    24 July, Wednesday

    Time Temperature Precipitation Wind Pressure Humidity
    00:00 +16°C° 0 mm 0 mps 690 mmHg 70%
    01:00 +15°C° 0 mm 0 mps 690 mmHg 75%
    02:00 +14°C° 0 mm 0 mps 690 mmHg 79%
    03:00 +14°C° 0 mm 0 mps 690 mmHg 83%
    04:00 +13°C° 0 mm 0 mps 689 mmHg 87%
    05:00 +14°C° 0 mm 0 mps 690 mmHg 85%
    06:00 +14°C° 0 mm 0 mps 691 mmHg 83%
    07:00 +15°C° 0 mm 0 mps 691 mmHg 81%
    08:00 +20°C° 0 mm 0 mps 692 mmHg 65%
    09:00 +25°C° 0 mm 0 mps 693 mmHg 49%
    10:00 +30°C° 0 mm 0 mps 694 mmHg 33%
    11:00 +33°C° 0 mm 1 mps 693 mmHg 29%
    12:00 +34°C° 0 mm 1 mps 692 mmHg 25%
    13:00 +36°C° 0 mm 2 mps 692 mmHg 21%
    14:00 +36°C° 0 mm 2 mps 691 mmHg 22%
    15:00 +35°C° 0 mm 3 mps 690 mmHg 23%
    16:00 +35°C° 0 mm 3 mps 690 mmHg 24%
    17:00 +31°C° 0 mm 2 mps 690 mmHg 32%
    18:00 +28°C° 0 mm 2 mps 690 mmHg 39%
    19:00 +24°C° 0 mm 1 mps 690 mmHg 46%
    20:00 +23°C° 0 mm 1 mps 691 mmHg 53%
    21:00 +21°C° 0 mm 1 mps 691 mmHg 60%
    22:00 +20°C° 0 mm 1 mps 692 mmHg 67%
    23:00 +17°C° 0 mm 0 mps 692 mmHg 73%

    25 July, Thursday

    Time Temperature Precipitation Wind Pressure Humidity
    00:00 +16°C° 0 mm 0 mps 691 mmHg 79%
    01:00 +15°C° 0 mm 0 mps 691 mmHg 85%
    02:00 +15°C° 0 mm 0 mps 691 mmHg 87%
    03:00 +14°C° 0 mm 0 mps 691 mmHg 90%
    04:00 +14°C° 0 mm 0 mps 691 mmHg 93%
    05:00 +15°C° 0 mm 1 mps 691 mmHg 91%
    06:00 +16°C° 0 mm 1 mps 692 mmHg 89%
    07:00 +16°C° 0 mm 1 mps 692 mmHg 87%
    08:00 +21°C° 0 mm 1 mps 693 mmHg 71%
    09:00 +25°C° 0 mm 1 mps 694 mmHg 56%
    10:00 +29°C° 0 mm 1 mps 694 mmHg 40%
    11:00 +31°C° 0 mm 1 mps 694 mmHg 35%
    12:00 +34°C° 0 mm 2 mps 693 mmHg 31%
    13:00 +36°C° 0 mm 2 mps 693 mmHg 26%
    14:00 +36°C° 0 mm 2 mps 692 mmHg 26%
    15:00 +35°C° 0 mm 2 mps 692 mmHg 26%
    16:00 +35°C° 0 mm 3 mps 691 mmHg 26%
    17:00 +31°C° 0 mm 2 mps 691 mmHg 32%
    18:00 +28°C° 0 mm 2 mps 691 mmHg 39%
    19:00 +25°C° 0 mm 2 mps 691 mmHg 45%
    20:00 +24°C° 0 mm 2 mps 691 mmHg 52%
    21:00 +22°C° 0 mm 1 mps 692 mmHg 58%
    22:00 +20°C° 0 mm 1 mps 692 mmHg 65%
    23:00 +19°C° 0 mm 1 mps 692 mmHg 72%

    26 July, Friday

    Time Temperature Precipitation Wind Pressure Humidity
    00:00 +18°C° 0 mm 1 mps 691 mmHg 79%
    01:00 +16°C° 0 mm 1 mps 691 mmHg 87%
    02:00 +15°C° 0 mm 1 mps 691 mmHg 89%
    03:00 +15°C° 0 mm 1 mps 691 mmHg 92%
    04:00 +14°C° 0 mm 1 mps 690 mmHg 95%
    05:00 +15°C° 0 mm 1 mps 691 mmHg 92%
    06:00 +16°C° 0 mm 1 mps 691 mmHg 88%
    07:00 +16°C° 0 mm 1 mps 692 mmHg 85%
    08:00 +21°C° 0 mm 1 mps 693 mmHg 67%
    09:00 +26°C° 0 mm 1 mps 693 mmHg 49%
    10:00 +30°C° 0 mm 1 mps 694 mmHg 31%
    11:00 +33°C° 0 mm 1 mps 693 mmHg 26%
    12:00 +35°C° 0 mm 1 mps 693 mmHg 21%
    13:00 +37°C° 0 mm 1 mps 692 mmHg 16%
    14:00 +37°C° 0 mm 1 mps 692 mmHg 16%
    15:00 +38°C° 0 mm 2 mps 691 mmHg 16%
    16:00 +37°C° 0 mm 2 mps 690 mmHg 15%
    17:00 +34°C° 0 mm 2 mps 690 mmHg 22%
    18:00 +29°C° 0 mm 1 mps 690 mmHg 29%
    19:00 +25°C° 0 mm 1 mps 689 mmHg 36%
    20:00 +24°C° 0 mm 1 mps 690 mmHg 43%
    21:00 +22°C° 0 mm 1 mps 690 mmHg 51%
    22:00 +20°C° 0 mm 1 mps 691 mmHg 58%
    23:00 +19°C° 0 mm 1 mps 691 mmHg 66%
    Show more